QPF
0.01 0.01 0.01 0.01 0.01 0.01 0.02 0.02 0.04 0.04 0.04 0.04 0.06 0.09 0.11 0.13 0.16 0.17 0.18 0.23 0.25 0.24 0.24 0.23 0.20 0.17 0.13 0.11 0.10 0.10 0.09 0.08 0.07 0.06 0.04 0.03 0.02 0.02
0.00 0.01 0.01 0.01 0.01 0.01 0.01 0.02 0.03 0.05 0.05 0.04 0.04 0.06 0.09 0.10 0.12 0.12 0.13 0.18 0.19 0.20 0.20 0.19 0.16 0.13 0.11 0.10 0.09 0.08 0.08 0.07 0.05 0.04 0.03 0.02 0.02 0.01
0.00 0.00 0.00 0.00 0.00 0.00 0.00 0.01 0.02 0.03 0.04 0.04 0.04 0.05 0.06 0.06 0.08 0.09 0.10 0.12 0.13 0.15 0.16 0.14 0.13 0.11 0.09 0.08 0.07 0.06 0.05 0.04 0.03 0.03 0.02 0.02 0.01 0.01
0.00 0.00 0.00 0.00 0.00 0.00 0.00 0.00 0.00 0.01 0.01 0.02 0.02 0.02 0.03 0.04 0.05 0.06 0.06 0.06 0.06 0.09 0.10 0.09 0.09 0.08 0.06 0.05 0.04 0.03 0.02 0.02 0.02 0.01 0.01 0.01 0.01 0.01
0.00 0.00 0.00 0.00 0.00 0.00 0.00 0.00 0.00 0.00 0.01 0.01 0.01 0.02 0.02 0.02 0.03 0.03 0.03 0.03 0.03 0.04 0.04 0.05 0.05 0.05 0.04 0.04 0.03 0.02 0.02 0.01 0.01 0.01 0.01 0.00 0.00 0.01
0.00 0.00 0.00 0.00 0.00 0.00 0.00 0.00 0.00 0.00 0.00 0.01 0.01 0.01 0.01 0.02 0.02 0.02 0.02 0.02 0.02 0.02 0.02 0.02 0.02 0.02 0.02 0.01 0.01 0.01 0.01 0.00 0.00 0.00 0.00 0.00 0.00 0.00
0.00 0.00 0.00 0.00 0.00 0.00 0.00 0.00 0.00 0.00 0.00 0.00 0.01 0.01 0.01 0.01 0.01 0.01 0.01 0.01 0.01 0.01 0.01 0.01 0.01 0.01 0.01 0.01 0.01 0.00 0.00 0.00 0.00 0.00 0.00 0.00 0.00 0.00
0.00 0.00 0.00 0.00 0.00 0.00 0.00 0.00 0.00 0.00 0.00 0.00 0.00 0.00 0.00 0.01 0.01 0.01 0.01 0.01 0.01 0.00 0.00 0.00 0.00 0.00 0.00 0.00 0.00 0.00 0.00 0.00 0.00 0.00 0.00 0.00 0.00 0.00
0.00 0.00 0.00 0.00 0.00 0.00 0.00 0.00 0.00 0.00 0.00 0.00 0.00 0.00 0.00 0.00 0.00 0.01 0.01 0.01 0.00 0.00 0.00 0.00 0.00 0.00 0.00 0.00 0.00 0.00 0.00 0.00 0.00 0.00 0.00 0.00 0.00 0.00
0.00 0.00 0.00 0.00 0.00 0.00 0.00 0.00 0.00 0.00 0.00 0.00 0.00 0.00 0.00 0.00 0.00 0.00 0.00 0.00 0.00 0.00 0.00 0.00 0.00 0.00 0.00 0.00 0.00 0.00 0.00 0.00 0.00 0.00 0.00 0.00 0.00 0.00
0.00 0.00 0.00 0.00 0.00 0.00 0.00 0.00 0.00 0.00 0.00 0.00 0.00 0.00 0.00 0.00 0.00 0.00 0.00 0.00 0.00 0.00 0.00 0.00 0.00 0.00 0.00 0.00 0.00 0.00 0.00 0.00 0.00 0.00 0.00 0.00 0.00 0.00
0.00 0.00 0.00 0.00 0.00 0.00 0.00 0.00 0.00 0.00 0.00 0.00 0.00 0.00 0.00 0.00 0.00 0.00 0.00 0.00 0.00 0.00 0.00 0.00 0.00 0.00 0.00 0.00 0.00 0.00 0.00 0.00 0.00 0.00 0.00 0.00 0.00 0.00
0.00 0.00 0.00 0.00 0.00 0.00 0.00 0.00 0.00 0.00 0.00 0.00 0.00 0.00 0.00 0.00 0.00 0.00 0.00 0.00 0.00 0.00 0.00 0.00 0.00 0.00 0.00 0.00 0.00 0.00 0.00 0.00 0.00 0.00 0.00 0.00 0.00 0.00
0.00 0.00 0.00 0.00 0.00 0.00 0.00 0.00 0.00 0.00 0.00 0.00 0.00 0.00 0.00 0.00 0.00 0.00 0.00 0.00 0.00 0.00 0.00 0.00 0.00 0.00 0.01 0.01 0.00 0.00 0.00 0.00 0.00 0.00 0.00 0.00 0.00 0.00
0.00 0.00 0.00 0.00 0.00 0.00 0.00 0.00 0.00 0.00 0.00 0.00 0.00 0.00 0.00 0.00 0.00 0.00 0.00 0.00 0.00 0.00 0.00 0.00 0.00 0.00 0.01 0.01 0.01 0.00 0.00 0.00 0.00 0.00 0.00 0.00 0.00 0.00
0.00 0.00 0.00 0.00 0.00 0.00 0.00 0.00 0.00 0.00 0.00 0.00 0.00 0.00 0.00 0.00 0.00 0.00 0.00 0.00 0.00 0.00 0.00 0.00 0.00 0.01 0.01 0.01 0.01 0.01 0.00 0.00 0.00 0.00 0.00 0.00 0.00 0.00
0.00 0.00 0.00 0.00 0.00 0.00 0.00 0.00 0.00 0.00 0.00 0.00 0.00 0.00 0.00 0.00 0.00 0.00 0.00 0.00 0.00 0.00 0.00 0.00 0.00 0.00 0.00 0.01 0.01 0.00 0.00 0.00 0.00 0.00 0.00 0.00 0.00 0.00
0.00 0.00 0.00 0.00 0.00 0.00 0.00 0.00 0.00 0.00 0.00 0.00 0.00 0.00 0.00 0.00 0.00 0.00 0.00 0.00 0.00 0.00 0.00 0.00 0.00 0.01 0.00 0.00 0.00 0.00 0.00 0.00 0.00 0.00 0.00 0.00 0.00 0.00
0.00 0.00 0.00 0.00 0.00 0.00 0.00 0.00 0.00 0.00 0.00 0.00 0.00 0.00 0.00 0.00 0.00 0.00 0.00 0.00 0.00 0.00 0.00 0.00 0.01 0.02 0.02 0.01 0.00 0.00 0.00 0.00 0.00 0.00 0.00 0.00 0.00 0.00
0.00 0.00 0.00 0.00 0.00 0.00 0.00 0.00 0.00 0.00 0.00 0.00 0.00 0.00 0.00 0.00 0.00 0.00 0.00 0.00 0.00 0.00 0.00 0.00 0.01 0.01 0.02 0.01 0.01 0.00 0.00 0.00 0.00 0.00 0.00 0.00 0.00 0.00
0.00 0.00 0.00 0.00 0.00 0.00 0.00 0.00 0.00 0.00 0.00 0.00 0.00 0.00 0.00 0.00 0.00 0.00 0.00 0.00 0.01 0.01 0.00 0.00 0.00 0.01 0.02 0.04 0.02 0.00 0.00 0.00 0.00 0.00 0.00 0.01 0.01 0.00
0.00 0.00 0.00 0.00 0.00 0.00 0.00 0.00 0.00 0.00 0.00 0.00 0.00 0.00 0.00 0.00 0.01 0.01 0.01 0.01 0.01 0.01 0.00 0.00 0.00 0.00 0.02 0.03 0.01 0.00 0.00 0.00 0.00 0.00 0.00 0.01 0.02 0.02
0.00 0.00 0.00 0.00 0.00 0.00 0.00 0.00 0.00 0.00 0.00 0.00 0.00 0.00 0.00 0.01 0.01 0.01 0.01 0.01 0.01 0.01 0.01 0.00 0.00 0.00 0.01 0.01 0.01 0.01 0.00 0.00 0.00 0.00 0.00 0.00 0.00 0.00
MSLP
1017.74 1017.66 1017.60 1017.55 1017.52 1017.53 1017.58 1017.67 1017.81 1017.99 1018.20 1018.42 1018.62 1018.79 1018.92 1018.99 1019.03 1019.04 1019.06 1019.12 1019.24 1019.44 1019.72 1020.06 1020.46 1020.89 1021.32 1021.72 1022.08 1022.40 1022.66 1022.89 1023.08 1023.24 1023.38 1023.48 1023.54 1023.57
1018.45 1018.33 1018.22 1018.10 1017.99 1017.92 1017.89 1017.92 1018.00 1018.14 1018.33 1018.53 1018.72 1018.88 1019.00 1019.06 1019.09 1019.09 1019.10 1019.14 1019.25 1019.44 1019.70 1020.04 1020.42 1020.83 1021.24 1021.62 1021.95 1022.24 1022.48 1022.69 1022.85 1023.00 1023.13 1023.22 1023.29 1023.32
1019.26 1019.13 1018.97 1018.81 1018.65 1018.51 1018.42 1018.38 1018.41 1018.51 1018.65 1018.82 1018.99 1019.14 1019.24 1019.29 1019.30 1019.30 1019.30 1019.33 1019.43 1019.60 1019.84 1020.15 1020.51 1020.88 1021.24 1021.57 1021.85 1022.09 1022.28 1022.45 1022.59 1022.72 1022.83 1022.93 1023.01 1023.05
1020.08 1019.96 1019.80 1019.61 1019.42 1019.24 1019.10 1019.02 1019.01 1019.06 1019.17 1019.30 1019.44 1019.56 1019.64 1019.68 1019.68 1019.67 1019.66 1019.69 1019.77 1019.92 1020.13 1020.40 1020.70 1021.00 1021.29 1021.54 1021.75 1021.92 1022.05 1022.16 1022.27 1022.38 1022.49 1022.60 1022.69 1022.76
1020.86 1020.76 1020.62 1020.44 1020.24 1020.04 1019.88 1019.77 1019.73 1019.75 1019.82 1019.92 1020.03 1020.13 1020.19 1020.22 1020.21 1020.19 1020.17 1020.19 1020.25 1020.37 1020.54 1020.74 1020.97 1021.19 1021.38 1021.53 1021.64 1021.72 1021.78 1021.83 1021.90 1021.99 1022.10 1022.22 1022.34 1022.44
1021.56 1021.49 1021.38 1021.21 1021.02 1020.84 1020.67 1020.55 1020.49 1020.48 1020.53 1020.60 1020.69 1020.77 1020.82 1020.84 1020.83 1020.80 1020.78 1020.79 1020.82 1020.90 1021.02 1021.15 1021.28 1021.40 1021.48 1021.52 1021.52 1021.49 1021.47 1021.46 1021.49 1021.56 1021.67 1021.81 1021.96 1022.09
1022.15 1022.11 1022.02 1021.89 1021.72 1021.54 1021.38 1021.26 1021.19 1021.18 1021.21 1021.27 1021.34 1021.40 1021.45 1021.46 1021.46 1021.44 1021.42 1021.41 1021.43 1021.46 1021.52 1021.57 1021.61 1021.61 1021.57 1021.49 1021.38 1021.25 1021.14 1021.07 1021.05 1021.10 1021.22 1021.37 1021.55 1021.73
1022.63 1022.61 1022.54 1022.42 1022.27 1022.11 1021.97 1021.85 1021.78 1021.76 1021.78 1021.82 1021.89 1021.95 1021.99 1022.02 1022.02 1022.01 1022.00 1021.99 1021.98 1021.99 1021.98 1021.96 1021.90 1021.80 1021.66 1021.46 1021.24 1021.02 1020.83 1020.70 1020.64 1020.67 1020.77 1020.94 1021.15 1021.35
1022.99 1022.97 1022.90 1022.80 1022.66 1022.52 1022.38 1022.27 1022.20 1022.17 1022.19 1022.23 1022.29 1022.36 1022.41 1022.45 1022.47 1022.48 1022.47 1022.46 1022.45 1022.42 1022.37 1022.29 1022.15 1021.97 1021.73 1021.44 1021.14 1020.84 1020.58 1020.39 1020.29 1020.29 1020.38 1020.55 1020.76 1020.98
1023.23 1023.20 1023.13 1023.03 1022.90 1022.76 1022.63 1022.53 1022.46 1022.43 1022.44 1022.48 1022.54 1022.61 1022.68 1022.73 1022.77 1022.80 1022.81 1022.80 1022.78 1022.74 1022.66 1022.53 1022.34 1022.10 1021.80 1021.45 1021.08 1020.73 1020.42 1020.18 1020.04 1020.01 1020.07 1020.22 1020.42 1020.63
1023.35 1023.30 1023.23 1023.13 1023.01 1022.88 1022.76 1022.66 1022.59 1022.56 1022.57 1022.61 1022.67 1022.74 1022.82 1022.88 1022.94 1022.98 1023.00 1023.00 1022.98 1022.93 1022.83 1022.68 1022.47 1022.20 1021.87 1021.49 1021.09 1020.71 1020.37 1020.09 1019.92 1019.84 1019.86 1019.97 1020.13 1020.31
1023.36 1023.31 1023.24 1023.14 1023.04 1022.92 1022.82 1022.73 1022.66 1022.63 1022.64 1022.67 1022.73 1022.81 1022.88 1022.95 1023.01 1023.05 1023.08 1023.09 1023.06 1023.01 1022.91 1022.75 1022.54 1022.26 1021.93 1021.55 1021.15 1020.76 1020.40 1020.11 1019.89 1019.77 1019.74 1019.79 1019.89 1020.01
1023.28 1023.24 1023.18 1023.12 1023.03 1022.94 1022.86 1022.78 1022.73 1022.71 1022.71 1022.74 1022.79 1022.86 1022.93 1022.99 1023.04 1023.07 1023.09 1023.09 1023.05 1022.99 1022.89 1022.73 1022.53 1022.27 1021.95 1021.60 1021.22 1020.84 1020.48 1020.17 1019.93 1019.75 1019.66 1019.63 1019.66 1019.70
1023.13 1023.12 1023.11 1023.08 1023.04 1022.99 1022.93 1022.88 1022.84 1022.83 1022.83 1022.86 1022.90 1022.95 1022.99 1023.03 1023.06 1023.07 1023.06 1023.03 1022.97 1022.89 1022.78 1022.63 1022.43 1022.19 1021.91 1021.59 1021.24 1020.88 1020.53 1020.21 1019.93 1019.72 1019.56 1019.45 1019.39 1019.35
1022.94 1022.99 1023.03 1023.06 1023.07 1023.06 1023.05 1023.02 1023.01 1023.00 1023.01 1023.03 1023.05 1023.08 1023.10 1023.10 1023.09 1023.05 1023.00 1022.93 1022.83 1022.72 1022.59 1022.43 1022.24 1022.01 1021.75 1021.46 1021.14 1020.81 1020.47 1020.14 1019.84 1019.58 1019.35 1019.17 1019.02 1018.90
1022.76 1022.87 1022.97 1023.06 1023.13 1023.17 1023.19 1023.20 1023.20 1023.21 1023.22 1023.23 1023.24 1023.24 1023.22 1023.18 1023.12 1023.03 1022.92 1022.78 1022.64 1022.48 1022.31 1022.12 1021.92 1021.70 1021.46 1021.18 1020.89 1020.57 1020.23 1019.90 1019.57 1019.26 1018.98 1018.73 1018.51 1018.31
1022.58 1022.76 1022.92 1023.06 1023.18 1023.26 1023.31 1023.34 1023.37 1023.38 1023.39 1023.40 1023.39 1023.37 1023.32 1023.24 1023.12 1022.97 1022.79 1022.60 1022.38 1022.16 1021.94 1021.72 1021.49 1021.25 1021.00 1020.73 1020.44 1020.12 1019.79 1019.44 1019.09 1018.74 1018.41 1018.10 1017.81 1017.55
1022.42 1022.65 1022.85 1023.03 1023.17 1023.28 1023.35 1023.40 1023.43 1023.45 1023.47 1023.47 1023.45 1023.40 1023.32 1023.20 1023.04 1022.84 1022.60 1022.33 1022.05 1021.77 1021.49 1021.21 1020.94 1020.67 1020.40 1020.11 1019.81 1019.48 1019.13 1018.77 1018.39 1018.01 1017.64 1017.28 1016.94 1016.63
1022.25 1022.50 1022.73 1022.92 1023.07 1023.17 1023.25 1023.30 1023.34 1023.36 1023.38 1023.37 1023.35 1023.29 1023.19 1023.04 1022.84 1022.59 1022.30 1021.98 1021.64 1021.30 1020.96 1020.63 1020.31 1020.00 1019.69 1019.37 1019.04 1018.69 1018.31 1017.92 1017.52 1017.11 1016.70 1016.31 1015.93 1015.59
1022.03 1022.29 1022.51 1022.68 1022.81 1022.91 1022.97 1023.02 1023.05 1023.07 1023.08 1023.08 1023.05 1022.99 1022.88 1022.71 1022.49 1022.21 1021.88 1021.52 1021.14 1020.74 1020.35 1019.97 1019.60 1019.25 1018.90 1018.54 1018.18 1017.80 1017.39 1016.97 1016.54 1016.10 1015.66 1015.24 1014.84 1014.46
1021.73 1021.96 1022.15 1022.30 1022.40 1022.46 1022.50 1022.53 1022.55 1022.57 1022.58 1022.58 1022.55 1022.49 1022.37 1022.20 1021.97 1021.67 1021.33 1020.94 1020.52 1020.09 1019.67 1019.25 1018.85 1018.45 1018.06 1017.67 1017.28 1016.86 1016.43 1015.98 1015.52 1015.05 1014.58 1014.13 1013.71 1013.31
1021.32 1021.51 1021.66 1021.76 1021.82 1021.85 1021.86 1021.86 1021.87 1021.88 1021.89 1021.89 1021.86 1021.80 1021.68 1021.51 1021.28 1020.97 1020.62 1020.22 1019.79 1019.35 1018.90 1018.46 1018.03 1017.61 1017.20 1016.78 1016.35 1015.91 1015.45 1014.98 1014.49 1013.99 1013.51 1013.04 1012.59 1012.18
1020.79 1020.93 1021.03 1021.08 1021.10 1021.09 1021.08 1021.06 1021.05 1021.05 1021.05 1021.04 1021.02 1020.95 1020.83 1020.66 1020.42 1020.12 1019.76 1019.36 1018.93 1018.48 1018.03 1017.58 1017.14 1016.71 1016.28 1015.85 1015.40 1014.94 1014.46 1013.97 1013.46 1012.95 1012.44 1011.96 1011.49 1011.07
Thickness
5590 5587 5584 5579 5575 5571 5567 5563 5559 5557 5551 5539 5529 5522 5515 5509 5503 5498 5494 5489 5487 5484 5481 5479 5477 5476 5476 5476 5477 5477 5478 5478 5478 5479 5481 5482 5483 5485
5576 5573 5569 5565 5561 5557 5554 5550 5547 5544 5540 5527 5517 5509 5504 5498 5492 5487 5483 5479 5477 5474 5471 5469 5467 5466 5465 5466 5467 5467 5467 5468 5469 5470 5471 5473 5474 5475
5561 5558 5554 5550 5547 5543 5540 5536 5532 5529 5526 5515 5505 5499 5494 5488 5483 5478 5474 5470 5466 5464 5462 5460 5459 5457 5456 5457 5458 5458 5458 5458 5459 5460 5461 5462 5463 5465
5545 5543 5539 5536 5532 5529 5525 5521 5517 5514 5511 5505 5496 5489 5484 5479 5474 5470 5465 5461 5457 5455 5454 5452 5451 5450 5449 5449 5448 5449 5449 5449 5449 5450 5450 5451 5452 5453
5531 5529 5525 5522 5518 5514 5511 5508 5504 5502 5498 5493 5485 5479 5474 5470 5466 5461 5457 5452 5450 5447 5445 5444 5443 5442 5441 5440 5439 5439 5439 5439 5439 5439 5439 5439 5440 5441
5518 5515 5512 5509 5505 5502 5499 5495 5492 5488 5485 5480 5475 5470 5465 5461 5457 5452 5448 5444 5441 5439 5437 5436 5434 5433 5432 5431 5430 5430 5430 5429 5428 5428 5428 5428 5429 5429
5505 5502 5500 5498 5496 5492 5488 5483 5480 5476 5473 5469 5465 5460 5455 5451 5447 5443 5438 5434 5432 5429 5427 5426 5424 5423 5422 5421 5421 5420 5419 5418 5418 5417 5417 5417 5417 5417
5492 5489 5487 5484 5482 5481 5478 5474 5471 5467 5462 5457 5452 5448 5443 5439 5435 5432 5428 5424 5422 5419 5416 5416 5415 5414 5414 5412 5411 5410 5409 5408 5407 5406 5405 5405 5404 5404
5479 5477 5475 5472 5469 5466 5464 5462 5459 5457 5453 5447 5441 5436 5432 5429 5425 5421 5417 5413 5410 5409 5406 5405 5404 5404 5404 5402 5400 5399 5398 5397 5396 5394 5393 5392 5391 5390
5469 5466 5463 5461 5460 5456 5453 5450 5446 5443 5440 5436 5432 5427 5424 5420 5416 5412 5407 5403 5400 5399 5396 5392 5392 5391 5392 5391 5389 5388 5386 5384 5383 5381 5379 5378 5377 5376
5460 5457 5455 5452 5452 5449 5444 5439 5436 5432 5430 5426 5423 5419 5415 5412 5408 5402 5396 5391 5387 5387 5384 5379 5378 5377 5378 5377 5375 5373 5371 5369 5367 5365 5363 5362 5361 5360
5451 5448 5447 5445 5444 5440 5434 5430 5426 5422 5419 5415 5412 5408 5404 5401 5397 5392 5386 5377 5372 5370 5370 5365 5361 5358 5358 5360 5358 5356 5353 5351 5349 5348 5347 5346 5345 5344
5443 5439 5437 5437 5435 5432 5427 5422 5418 5414 5409 5405 5400 5397 5393 5389 5384 5379 5374 5367 5359 5355 5355 5350 5343 5339 5335 5337 5340 5338 5335 5334 5332 5331 5331 5330 5329 5329
5435 5432 5429 5428 5426 5423 5418 5415 5411 5405 5399 5395 5390 5386 5381 5376 5372 5367 5361 5356 5350 5345 5341 5335 5328 5322 5318 5317 5319 5320 5318 5316 5315 5316 5316 5316 5315 5315
5428 5426 5423 5420 5417 5412 5409 5406 5400 5394 5390 5384 5380 5374 5369 5364 5359 5354 5349 5344 5338 5333 5328 5322 5315 5309 5303 5301 5302 5302 5300 5302 5301 5302 5301 5301 5301 5301
5421 5418 5415 5411 5407 5403 5399 5394 5389 5384 5380 5375 5370 5365 5360 5354 5348 5342 5336 5330 5324 5320 5316 5310 5303 5296 5291 5288 5286 5287 5285 5284 5288 5287 5288 5289 5289 5290
5414 5409 5405 5400 5396 5392 5388 5384 5379 5375 5369 5365 5359 5354 5349 5343 5337 5331 5324 5317 5311 5305 5300 5295 5291 5285 5281 5277 5276 5277 5276 5276 5276 5275 5275 5278 5281 5281
5407 5400 5396 5391 5387 5383 5378 5374 5370 5365 5360 5354 5348 5342 5337 5330 5324 5319 5313 5306 5300 5295 5289 5283 5277 5273 5271 5271 5270 5268 5267 5266 5266 5265 5265 5268 5274 5276
5398 5392 5387 5382 5378 5374 5369 5364 5359 5355 5350 5344 5338 5332 5325 5319 5313 5307 5302 5296 5290 5285 5279 5273 5266 5261 5259 5262 5265 5261 5258 5258 5257 5258 5258 5260 5266 5271
5390 5385 5380 5375 5371 5366 5361 5356 5352 5347 5341 5335 5329 5323 5316 5309 5303 5298 5292 5286 5281 5276 5272 5265 5259 5254 5251 5252 5255 5255 5250 5249 5250 5252 5254 5256 5261 5265
5382 5378 5373 5368 5364 5359 5354 5349 5343 5338 5333 5326 5320 5314 5308 5301 5295 5290 5285 5280 5276 5272 5268 5263 5257 5252 5248 5245 5248 5253 5250 5245 5245 5246 5248 5250 5256 5262
5376 5371 5367 5362 5357 5352 5347 5341 5335 5330 5325 5319 5313 5307 5301 5294 5288 5283 5278 5273 5269 5265 5262 5259 5253 5246 5241 5240 5244 5248 5249 5246 5244 5244 5246 5247 5248 5257
5370 5365 5360 5355 5351 5345 5340 5334 5329 5324 5318 5313 5307 5300 5294 5288 5283 5278 5273 5269 5264 5260 5257 5255 5251 5245 5242 5240 5240 5243 5244 5245 5244 5245 5248 5247 5249 5255